User: anonymous   Login
Location: Mauna Kea VIS
(19.7591°N, 155.4561°W)
Time: 06:13:16
(UTC-10:00)
Language:

Cosmos 1624 Rocket - Orbit

View from above orbital plane
View from above orbital plane
View from above satellite
View from above satellite

Ground track
Ground track

The orbit data is extracted from the following two-line orbital elements,

1 15483U 85006B   15212.88651745  .00000092  00000-0  40509-4 0  9998
2 15483 074.0451 174.6631 0019586 321.8107 102.0609 14.36041716598039
Epoch (UTC): 31 July 2015 21:16:35
Eccentricity: 0.0019586
inclination: 74.0451°
perigee height: 757 km
apogee height: 785 km
right ascension of ascending node: 174.6631°
argument of perigee: 321.8107°
revolutions per day: 14.36041716
mean anomaly at epoch: 102.0609°
orbit number at epoch: 59803

The dashed part of the orbit path shows where the satellite is in the earth's shadow,  

DLR